Flag for Germany Weather past 2 weeks in Hamburg, Hamburg, Germany

43 °F

Light rain. Partly sunny.

Feels Like: 40 °F
Forecast: 38 / 47 °F
Wind: 5 mph from East

Location: Hamburg-Fuhlsbuettel

Current Time: Oct 13, 2015 at 2:09:56 PM

Latest Report: Oct 13, 2015 at 1:20 PM

Visibility: N/A

Pressure: 30.18 "Hg

Humidity: 76%

Dew point: 36 °F

Location of HamburgLocation

Historic Weather in Hamburg — Graph


Hamburg temperature yesterday

Maximum temperature yesterday: 48 °F (at 2:50 PM)
Minimum temperature yesterday: 34 °F (at 4:50 AM)
Average temperature yesterday: 40 °F

Past Weeks' High & Low Weather Summary

High66 °F (Oct 3, 3:20 PM)100% (Sep 28, 10:50 PM)30.72 "Hg (Sep 28, 10:50 PM)
Low34 °F (Oct 11, 4:20 AM)47% (Oct 10, 2:20 PM)29.71 "Hg (Oct 6, 11:50 AM)
Average50 °F83%30.21 "Hg
* Reported Sep 28 12:20 PM — Oct 13 12:50 PM, Hamburg, Weather by CustomWeather, © 2015

Note: Actual official high and low records may vary slightly from our data, if they occured in-between our weather recording intervals... More about our weather records


Hamburg weather history for previous 24 hours

Time TempWeatherWind HumidityBarometerVisibility
12:50 PM
Tue, Oct 13
43 °FPartly sunny.6 mph76%30.18 "HgN/A
12:20 PM43 °FPartly sunny.6 mph76%30.18 "HgN/A
11:50 AM41 °FPartly sunny.6 mph81%30.18 "HgN/A
11:20 AM41 °FPartly sunny.7 mph76%30.18 "HgN/A
10:50 AM41 °FPartly sunny.7 mph76%30.18 "HgN/A
10:20 AM39 °FPartly sunny.3 mph81%30.18 "HgN/A
9:50 AM39 °FBroken clouds.7 mph81%30.18 "HgN/A
9:20 AM37 °FPartly sunny.6 mph87%30.18 "HgN/A
8:50 AM37 °FPartly sunny.7 mph87%30.18 "HgN/A
8:20 AM37 °FPartly cloudy.6 mph81%30.18 "HgN/A
7:50 AM36 °FPartly cloudy.6 mph87%30.18 "HgN/A
7:20 AM37 °FPartly cloudy.7 mph81%30.18 "HgN/A
6:50 AM36 °FPartly cloudy.6 mph87%30.18 "HgN/A
6:20 AM36 °FPassing clouds.6 mph87%30.18 "HgN/A
5:50 AM36 °FPassing clouds.6 mph87%30.18 "HgN/A
5:20 AM37 °FPassing clouds.5 mph81%30.18 "HgN/A
4:50 AM37 °FPassing clouds.6 mph81%30.18 "HgN/A
4:20 AM37 °FPassing clouds.7 mph81%30.18 "HgN/A
3:50 AM37 °FPassing clouds.8 mph81%30.18 "HgN/A
3:20 AM37 °FPassing clouds.9 mph81%30.18 "HgN/A
2:50 AM39 °FPassing clouds.9 mph75%30.18 "HgN/A
2:20 AM39 °FPassing clouds.8 mph75%30.18 "HgN/A
1:50 AM39 °FPassing clouds.9 mph75%30.18 "HgN/A
1:20 AM39 °FPassing clouds.8 mph75%30.18 "HgN/A
12:50 AM37 °FClear.9 mph81%30.18 "Hg10 mi
12:20 AM37 °FClear.9 mph81%30.18 "Hg10 mi
11:50 PM
Mon, Oct 12
37 °FClear.8 mph81%30.18 "Hg10 mi
11:20 PM37 °FClear.8 mph81%30.18 "Hg10 mi
10:50 PM37 °FClear.9 mph81%30.18 "Hg10 mi
10:20 PM37 °FClear.8 mph81%30.18 "Hg10 mi
9:50 PM39 °FClear.7 mph75%30.18 "Hg10 mi
9:20 PM39 °FClear.7 mph75%30.18 "Hg10 mi
8:50 PM39 °FClear.7 mph75%30.18 "Hg10 mi
8:20 PM41 °FClear.8 mph70%30.18 "Hg10 mi
7:50 PM41 °FClear.8 mph70%30.18 "Hg10 mi
7:20 PM41 °FSunny.7 mph70%30.18 "Hg10 mi
6:50 PM43 °FPassing clouds.7 mph66%30.18 "HgN/A
6:20 PM45 °FSunny.9 mph61%30.18 "Hg10 mi
5:50 PM45 °FSunny.12 mph57%30.18 "Hg10 mi
5:20 PM46 °FSunny.13 mph53%30.18 "Hg10 mi
4:50 PM46 °FPassing clouds.12 mph53%30.18 "HgN/A
4:20 PM46 °FSunny.13 mph53%30.18 "Hg10 mi
3:50 PM46 °FSunny.14 mph53%30.18 "Hg10 mi
3:20 PM48 °FSunny.13 mph50%30.18 "Hg10 mi
2:50 PM48 °FPassing clouds.14 mph50%30.21 "HgN/A
2:20 PM46 °FSunny.14 mph53%30.21 "Hg10 mi
Weather by CustomWeather, © 2015

See weather overviewHow to use our weather pages